星链-4695 (STARLINK-4695 )

导读 | 豆包AI

STARLINK-4695是美国太空探索技术公司(SpaceX)星链(Starlink)星座中的一颗互联网通信卫星,由猎鹰9号火箭于2022年9月5日发射,隶属于星链Group 4-16批次。该卫星重约297公斤,运行在约548公里高度的近地轨道,旨在为全球提供高速太空互联网接入服务,是星链庞大星座组网的组成单元之一,助力实现全球覆盖的卫星互联网布局。

基本信息
目录编号:
53718
目录名称:
STARLINK-4695
国际标识:
2022-107U
轨道中心:
EARTH
卫星名称:
星链-4695
卫星全名:
星链-4695 (STARLINK-4695 )
卫星状态:
在轨 (已飞行1333 天)
发射日期:
2022-09-05 UTC
国别 :
美国 (US)
星等 :
--
轨道信息
数据来源 国际轨道数据
星历时间: 2026-04-30T10:50:33+0800
14小时前
查看轨道信息
半长轴: 6917.906km
偏心率: 0.0001465
轨道倾角: 53.220°
近地点辐角 80.917°
升交点赤经 23.513°
平近点角 279.199°
近地点: 538.755km
远地点: 540.783km
周期: 95.438分钟
每日圈数: 15.088318
详细信息
固有亮度:
5
最大亮度:
2.5
卫星平台:
Starlink v1.5
覆盖范围:
全球
运营商:
太空探索技术公司
运营商所在国:
美国
制造商(研发单位):
太空探索技术公司
制造商所在国:
美国
使用方式:
暂无
卫星简介
星链(Starlink)计划是由太空探索技术公司(SpaceX)提出的一个巨型低轨卫星互联网星座项目,计划在2019年至2024年间在太空搭建由约1.2万颗卫星组成的“星链”网络,其中1584颗将部署在地球上空550千米处的近地轨道,并从2020年开始工作。该卫星仍在工作。
2D轨道图
3D轨道图
轨道高度分析图
轨道倾角分析图
轨道综合分析图
查看轨道综合分析图